Click on desired case number or refine your search to continue

Case TitleCourtCase NoChpDate FiledClosedDisposition
Peabody Colorado Services, LLCMissouri Eastern4:16-bk-425311104/13/201610/05/2017Discharge Not Applicable 10/05/2017
Peabody Energy Investments, Inc.Missouri Eastern4:16-bk-426421104/13/201612/07/2017Discharge Not Applicable 12/07/2017
BTU Western Resources, Inc.Missouri Eastern4:16-bk-425541104/13/201601/11/2018Discharge Not Applicable
Hayden Gulch Terminal, LLCMissouri Eastern4:16-bk-425831104/13/201610/05/2017Discharge Not Applicable
James River Coal Terminal, LLCMissouri Eastern4:16-bk-425691104/13/201610/05/2017Discharge Not Applicable
Peabody Midwest Management Services, LLCMissouri Eastern4:16-bk-425931104/13/201602/12/2018Discharge Not Applicable 02/12/2018
Thoroughbred Mining Company LLCMissouri Eastern4:16-bk-426801104/13/201610/05/2017Discharge Not Applicable
Pacific Export Resources, LLCMissouri Eastern4:16-bk-425981104/13/201610/05/2017Discharge Not Applicable
Peabody Cardinal Gasification, LLCMissouri Eastern4:16-bk-425421104/13/201610/05/2017Discharge Not Applicable 10/05/2017
Peabody Gateway Services, LLCMissouri Eastern4:16-bk-425811104/13/201612/07/2017Discharge Not Applicable 12/07/2017
Seneca Coal Company, LLCMissouri Eastern4:16-bk-426521104/13/201601/11/2018Discharge Not Applicable
Four Star Holdings, LLCMissouri Eastern4:16-bk-425561104/13/201610/05/2017Discharge Not Applicable
Peabody International Services, Inc.Missouri Eastern4:16-bk-425411104/13/201601/11/2018Discharge Not Applicable 01/11/2018
Peabody IC Funding Corp.Missouri Eastern4:16-bk-426151104/13/201612/07/2017Discharge Not Applicable 12/07/2017
Peabody America, LLCMissouri Eastern4:16-bk-426091104/13/201603/07/2018Discharge Not Applicable 03/07/2018
Kentucky United Coal, LLCMissouri Eastern4:16-bk-425731104/13/201610/05/2017Discharge Not Applicable
Kentucky Syngas, LLCMissouri Eastern4:16-bk-426181104/13/201610/05/2017Discharge Not Applicable
American Land Holdings of Indiana, LLCMissouri Eastern4:16-bk-425461104/13/201601/11/2018Discharge Not Applicable
HMC Mining LLCMissouri Eastern4:16-bk-425661104/13/201610/05/2017Discharge Not Applicable
Peabody Venezuela Coal Corp.Missouri Eastern4:16-bk-426511104/13/201612/07/2017Discharge Not Applicable
Peabody Terminals, LLCMissouri Eastern4:16-bk-426141104/13/201610/05/2017Discharge Not Applicable
Porcupine Production, LLCMissouri Eastern4:16-bk-426481104/13/201610/05/2017Discharge Not Applicable
Peabody New Mexico Services, LLCMissouri Eastern4:16-bk-426461104/13/201612/07/2017Discharge Not Applicable
American Land Holdings of Illinois, LLCMissouri Eastern4:16-bk-426001104/13/201611/16/2017Discharge Not Applicable
Peabody Trout Creek Reservoir LLCMissouri Eastern4:16-bk-426221104/13/201610/05/2017Discharge Not Applicable
Gallo Finance Company, LLCMissouri Eastern4:16-bk-425861104/13/201612/07/2017Discharge Not Applicable
Peabody Illinois Services, LLCMissouri Eastern4:16-bk-426101104/13/201612/07/2017Discharge Not Applicable 12/07/2017
Peabody Rocky Mountain Management Services, LLCMissouri Eastern4:16-bk-426031104/13/201601/11/2018Discharge Not Applicable
Twentymile Coal, LLCMissouri Eastern4:16-bk-426691104/13/201601/11/2018Discharge Not Applicable
Point Pleasant Dock Company, LLCMissouri Eastern4:16-bk-426551104/13/201610/05/2017Discharge Not Applicable
Peabody Southwest, LLCMissouri Eastern4:16-bk-426311104/13/201610/05/2017Discharge Not Applicable
Peabody Arclar Mining, LLCMissouri Eastern4:16-bk-425451104/13/201606/28/2018Discharge Not Applicable 06/28/2018
Lively Grove Energy, LLCMissouri Eastern4:16-bk-425951104/13/201610/05/2017Discharge Not Applicable
Peabody-Waterside Development, L.L.C.Missouri Eastern4:16-bk-426621104/13/201611/16/2017Discharge Not Applicable
School Creek Coal Resources, LLCMissouri Eastern4:16-bk-426431104/13/201610/05/2017Discharge Not Applicable
Juniper Coal Company, LLCMissouri Eastern4:16-bk-425771104/13/201612/07/2017Discharge Not Applicable
COALSALES II LLCMissouri Eastern4:16-bk-425701104/13/201611/16/2017Discharge Not Applicable
American Land Holdings of West Virginia LLCMissouri Eastern4:16-bk-425711104/13/201610/05/2017Discharge Not Applicable
Peabody Williams Fork Mining, LLCMissouri Eastern4:16-bk-426301104/13/201612/07/2017Discharge Not Applicable
Peabody Powder River Operations, LLCMissouri Eastern4:16-bk-426761104/13/201612/07/2017Discharge Not Applicable
Cottonwood Land CompanyMissouri Eastern4:16-bk-425721104/13/201601/11/2018Discharge Not Applicable
Peabody IC Holdings, LLCMissouri Eastern4:16-bk-426011104/13/201610/05/2017Discharge Not Applicable 10/05/2017
Central States Coal Reserves of Indiana, LLCMissouri Eastern4:16-bk-425511104/13/201610/05/2017Discharge Not Applicable
Illinois Land Holdings, LLCMissouri Eastern4:16-bk-425991104/13/201611/16/2017Discharge Not Applicable
Sage Creek Holdings, LLCMissouri Eastern4:16-bk-426701104/13/201611/16/2017Discharge Not Applicable
Porcupine Transportation, LLCMissouri Eastern4:16-bk-426651104/13/201610/05/2017Discharge Not Applicable
Midwest Coal Reserves of Kentucky, LLCMissouri Eastern4:16-bk-426201104/13/201610/05/2017Discharge Not Applicable
Twentymile Holdings, LLCMissouri Eastern4:16-bk-426541104/13/201610/05/2017Discharge Not Applicable
Peabody Bear Run Mining, LLCMissouri Eastern4:16-bk-425651104/13/201602/12/2018Discharge Not Applicable 02/12/2018
Peabody Indiana Services, LLCMissouri Eastern4:16-bk-426191104/13/201612/07/2017Discharge Not Applicable 12/07/2017